Albuquerque Double Eagle, NM

6:50 AM MST on November 22, 2017 (GMT -0700)
Double Eagle Ii

Weather History for KAEG - July, 2013

Change the Weather History Date:

Friday, July 19, 2013

  Actual Average (KABQ) Record (KABQ)
Temperature  
Mean Temperature 69 °F -  
Max Temperature 78 °F 92 °F 100 °F (1978)
Min Temperature 60 °F 64 °F 53 °F (1913)
Cooling Degree Days 4    
Growing Degree Days 19 (Base 50)    
Moisture  
Dew Point 55 °F    
Average Humidity 68    
Maximum Humidity 100    
Minimum Humidity 42    
Precipitation  
Precipitation 0.00 in - - ()
Sea Level Pressure  
Sea Level Pressure 30.23 in    
Wind  
Wind Speed 9 mph (SE)    
Max Wind Speed 15 mph    
Max Gust Speed -    
Visibility 10 miles    
Events      
Averages and records for this station are not official NWS values.
T = Trace of Precipitation, MM = Missing Value Source: NWS Daily Summary

Daily Weather History Graph

Daily Weather History Graph

Search for Another Location

Airport or City:

Trip Planner

Search our weather history database for the weather conditions in past years. The results will help you decide how hot, cold, wet, or windy it might be!

Date:

Astronomy

Jul. 19, 2013 Rise Set
Actual Time 6:07 AM MDT 8:19 PM MDT
Civil Twilight 5:38 AM MDT 8:48 PM MDT
Nautical Twilight 5:03 AM MDT 9:23 PM MDT
Astronomical Twilight 4:24 AM MDT 10:01 PM MDT
Moon 5:25 PM MDT (7/19) 2:50 AM MDT (7/19)
Length of Visible Light 15h 10m
Length of Day
14h 12m
Waxing Gibbous, 87% of the Moon is Illuminated
Jul 19
Waxing Gibbous
Jul 22
Full
Jul 29
Last Quarter
Aug 6
New
Aug 14
First Quarter

Hourly Weather History & Observations

Time (MDT) Temp. Dew Point Humidity Pressure Visibility Wind Dir Wind Speed Gust Speed Precip Events Conditions
12:15 AM 66.2 °F 51.8 °F 60% 30.25 in 10.0 mi SSE 8.1 mph - N/A   Unknown
12:35 AM 66.2 °F 51.8 °F 60% 30.25 in 10.0 mi SE 6.9 mph - N/A   Unknown
12:55 AM 66.2 °F 53.6 °F 64% 30.25 in 10.0 mi SSE 8.1 mph - N/A   Unknown
1:15 AM 66.2 °F 53.6 °F 64% 30.25 in 10.0 mi SSE 9.2 mph - N/A   Unknown
1:35 AM 66.2 °F 53.6 °F 64% 30.25 in 10.0 mi South 11.5 mph - N/A   Unknown
1:55 AM 66.2 °F 53.6 °F 64% 30.24 in 10.0 mi South 13.8 mph - N/A   Unknown
2:15 AM 64.4 °F 55.4 °F 73% 30.24 in 10.0 mi South 13.8 mph - N/A   Unknown
2:35 AM 64.4 °F 55.4 °F 73% 30.25 in 10.0 mi South 12.7 mph - N/A   Unknown
2:55 AM 64.4 °F 55.4 °F 73% 30.24 in 10.0 mi South 12.7 mph - N/A   Unknown
3:15 AM 62.6 °F 55.4 °F 77% 30.24 in 10.0 mi South 10.4 mph - N/A   Unknown
3:35 AM 62.6 °F 57.2 °F 82% 30.24 in 10.0 mi SSE 10.4 mph - N/A   Unknown
3:55 AM 62.6 °F 57.2 °F 82% 30.24 in 10.0 mi SSE 10.4 mph - N/A   Unknown
4:15 AM 62.6 °F 57.2 °F 82% 30.24 in 10.0 mi SSE 6.9 mph - N/A   Unknown
4:35 AM 62.6 °F 57.2 °F 82% 30.23 in 10.0 mi SSE 10.4 mph - N/A   Unknown
4:55 AM 62.6 °F 59.0 °F 88% 30.23 in 10.0 mi SSE 10.4 mph - N/A   Unknown
5:15 AM 62.6 °F 59.0 °F 88% 30.24 in 10.0 mi SSE 8.1 mph - N/A   Unknown
5:35 AM 60.8 °F 59.0 °F 94% 30.25 in 10.0 mi SSE 6.9 mph - N/A   Unknown
5:50 AM 60.8 °F 59.0 °F 94% 30.25 in 10.0 mi ESE 6.9 mph - N/A   Mostly Cloudy
6:50 AM 60.8 °F 60.8 °F 100% 30.25 in 10.0 mi SE 6.9 mph - N/A   Mostly Cloudy
8:50 AM 66.2 °F 57.2 °F 73% 30.27 in 10.0 mi Calm Calm - N/A   Scattered Clouds
9:50 AM 68.0 °F 55.4 °F 64% 30.26 in 10.0 mi SSE 6.9 mph - N/A   Scattered Clouds
10:50 AM 71.6 °F 53.6 °F 53% 30.25 in 10.0 mi Variable 5.8 mph - N/A   Scattered Clouds
11:50 AM 75.2 °F 53.6 °F 47% 30.23 in 10.0 mi Variable 5.8 mph - N/A   Partly Cloudy
12:50 PM 78.8 °F 53.6 °F 42% 30.21 in 10.0 mi SE 8.1 mph - N/A   Scattered Clouds
10:15 PM 71.6 °F 50.0 °F 46% 30.18 in 10.0 mi NE 6.9 mph - N/A   Unknown
10:35 PM 71.6 °F 50.0 °F 46% 30.18 in 10.0 mi NNE 8.1 mph - N/A   Unknown
10:55 PM 71.6 °F 50.0 °F 46% 30.19 in 10.0 mi NNE 10.4 mph - N/A   Unknown
11:15 PM 71.6 °F 51.8 °F 50% 30.19 in 10.0 mi North 13.8 mph - N/A   Unknown
11:35 PM 69.8 °F 53.6 °F 56% 30.20 in 10.0 mi NNE 15.0 mph - N/A   Unknown
11:55 PM 69.8 °F 53.6 °F 56% 30.19 in 10.0 mi NNE 10.4 mph - N/A   Unknown